Hourly Data Report for January 07, 2018

All times are specified in Local Standard Time (LST). Add 1 hour to adjust for Daylight Saving Time where and when it is observed.

OTTAWA INTL A
ONTARIO

45°19'00.000" N
75°40'00.000" W
114.90 m
6106001
71628
YOW

Download Data

Hourly Data (January 2018)
Hourly Data Report for January 7, 2018
Temp Definition
°C
Dew Point Temp Definition
°C
Rel Hum Definition
%
Wind Dir Definition
10's deg

Wind Spd Definition
km/h
Visibility Definition
km
Stn Press Definition
kPa
Hmdx Definition


Wind Chill Definition


Weather Definition


TIME
00:00 -23.6 -29.2 61 28 18 24.1 101.77   -34 LegendNANA
01:00 -24.1 -28.9 65 28 16 24.1 101.80   -34 Clear
02:00 -25.3 -29.5 69 27 11 24.1 101.81   -34 LegendNANA
03:00 -25.6 -29.6 70 25 9 24.1 101.87   -33 LegendNANA
04:00 -25.9 -29.8 70 23 5 24.1 101.83   -31 Clear
05:00 -26.2 -29.8 72 22 9 24.1 101.82   -34 LegendNANA
06:00 -27.0 -30.7 72 19 10 24.1 101.82   -36 LegendNANA
07:00 -27.5 -31.1 72 19 11 24.1 101.83   -37 Mainly Clear
08:00 -27.3 -31.0 71 18 8 24.1 101.81   -35 LegendNANA
09:00 -24.1 -28.6 67 18 10 24.1 101.79   -32 LegendNANA
10:00 -21.9 -26.9 65 17 10 24.1 101.70   -29 Cloudy
11:00 -20.7 -26.2 62 18 15 24.1 101.59   -30 LegendNANA
12:00 -18.9 -24.4 62 16 16 24.1 101.40   -28 LegendNANA
13:00 -16.4 -21.5 65 18 11 24.1 101.20   -23 Cloudy
14:00 -14.7 -19.1 69 17 17 24.1 101.05   -23 LegendNANA
15:00 -13.7 -18.2 69 18 17 24.1 100.90   -22 LegendNANA
16:00 -13.0 -16.3 77 18 15 4.8 100.80   -20 Snow
17:00 -12.5 -15.6 78 17 18 4.8 100.65   -21 Snow
18:00 -12.3 -14.7 82 18 17 1.6 100.56   -20 Snow
19:00 -11.8 -14.0 84 19 14 1.6 100.50   -19 Snow
20:00 -11.2 -13.5 83 19 13 9.7 100.46   -18 Snow
21:00 -10.5 -13.1 82 18 12 12.9 100.37   -17 Snow
22:00 -10.1 -12.2 85 18 12 3.2 100.31   -16 Snow
23:00 -9.6 -11.2 88 18 10 6.4 100.27   -15 Snow

Notes on Data Quality.

Legend

  • E = Estimated
  • M = Missing
  • NA = Not Available
Date modified: